Weather History for Troy, AL

Change the Weather History Date:

Thursday, February 21, 2013

  Actual Average Record
Temperature  
Mean Temperature 50 °F 51 °F  
Max Temperature 69 °F 64 °F 91 °F (2001)
Min Temperature 30 °F 39 °F 24 °F (2009)
Degree Days  
Heating Degree Days 15 14  
Month to date heating degree days 330 334  
Since 1 July heating degree days 1527 1826  
Moisture  
Dew Point 32 °F    
Average Humidity 57    
Maximum Humidity 92    
Minimum Humidity 22    
Precipitation  
Precipitation 0.00 in 0.17 in 1.34 in (2014)
Month to date precipitation 7.62 3.38  
Year to date precipitation 10.76 7.93  
Snow  
Snow 0.00 in - - ()
Month to date snowfall 0.0  
Since 1 July snowfall 0.0  
Snow Depth 0.00 in    
Sea Level Pressure  
Sea Level Pressure 30.05 in    
Wind  
Wind Speed 6 mph (SE)    
Max Wind Speed 16 mph    
Max Gust Speed 23 mph    
Visibility 9 miles    
Events      
T = Trace of Precipitation, MM = Missing Value Source: NWS Daily Summary

Daily Weather History Graph

Daily Weather History Graph

Search for Another Location

Airport:

Trip Planner

Search our weather history database for the weather conditions in past years. The results will help you decide how hot, cold, wet, or windy it might be!

Date:

Astronomy

Feb. 21, 2013 Rise Set
Actual Time 6:19 AM CST 5:35 PM CST
Civil Twilight 5:55 AM CST 6:00 PM CST
Nautical Twilight 5:26 AM CST 6:29 PM CST
Astronomical Twilight 4:58 AM CST 6:57 PM CST
Moon 1:59 PM CST (2/21) 3:14 AM CST (2/21)
Length of Visible Light 12h 05m
Length of Day
11h 16m
Waxing Gibbous, 84% of the Moon is Illuminated
Feb 21
Waxing Gibbous
Feb 25
Full
Mar 4
Last Quarter
Mar 11
New
Mar 19
First Quarter

Hourly Weather History & Observations

Time (CST) Temp. Windchill Dew Point Humidity Pressure Visibility Wind Dir Wind Speed Gust Speed Precip Events Conditions
12:53 AM 32.0 °F - 28.0 °F 85% 30.13 in 10.0 mi Calm Calm - N/A   Clear
1:53 AM 30.9 °F - 28.0 °F 89% 30.12 in 8.0 mi Calm Calm - N/A   Clear
2:53 AM 30.0 °F - 28.0 °F 92% 30.11 in 7.0 mi Calm Calm - N/A   Clear
3:53 AM 30.9 °F - 28.0 °F 89% 30.11 in 7.0 mi Calm Calm - N/A   Clear
4:53 AM 30.9 °F - 27.0 °F 85% 30.12 in 7.0 mi Calm Calm - N/A   Clear
5:53 AM 32.0 °F 28.7 °F 26.1 °F 79% 30.13 in 9.0 mi NE 3.5 mph - N/A   Clear
6:53 AM 34.0 °F 28.8 °F 25.0 °F 70% 30.14 in 9.0 mi NE 5.8 mph - N/A   Clear
7:53 AM 39.9 °F 36.7 °F 25.0 °F 55% 30.15 in 10.0 mi ENE 4.6 mph - N/A   Clear
8:53 AM 48.9 °F - 25.0 °F 39% 30.15 in 10.0 mi East 4.6 mph - N/A   Clear
9:53 AM 57.0 °F - 23.0 °F 27% 30.15 in 10.0 mi ESE 10.4 mph - N/A   Scattered Clouds
10:53 AM 61.0 °F - 25.0 °F 25% 30.11 in 10.0 mi East 6.9 mph - N/A   Clear
11:53 AM 64.0 °F - 24.1 °F 22% 30.07 in 10.0 mi SSE 8.1 mph - N/A   Partly Cloudy
12:53 PM 64.9 °F - 25.0 °F 22% 30.04 in 10.0 mi SSE 6.9 mph - N/A   Overcast
1:53 PM 66.9 °F - 27.0 °F 22% 29.99 in 9.0 mi SSE 11.5 mph - N/A   Scattered Clouds
2:53 PM 68.0 °F - 28.9 °F 23% 29.97 in 10.0 mi SE 12.7 mph - N/A   Mostly Cloudy
3:53 PM 66.0 °F - 30.9 °F 27% 29.95 in 10.0 mi SSE 9.2 mph - N/A   Clear
4:53 PM 64.9 °F - 32.0 °F 29% 29.96 in 10.0 mi SSE 6.9 mph - N/A   Clear
5:53 PM 63.0 °F - 33.1 °F 33% 29.97 in 10.0 mi SE 4.6 mph - N/A   Clear
6:53 PM 60.1 °F - 36.0 °F 41% 29.97 in 10.0 mi SE 6.9 mph - N/A   Clear
7:53 PM 62.1 °F - 37.0 °F 39% 29.97 in 9.0 mi SE 12.7 mph - N/A   Clear
8:53 PM 63.0 °F - 43.0 °F 48% 29.95 in 5.0 mi SSE 9.2 mph - N/A   Haze
9:53 PM 62.1 °F - 48.0 °F 60% 29.94 in 5.0 mi SSE 6.9 mph - N/A   Haze
10:53 PM 62.1 °F - 50.0 °F 65% 29.95 in 6.0 mi South 8.1 mph - N/A   Haze
11:53 PM 62.1 °F - 53.1 °F 72% 29.94 in 5.0 mi South 11.5 mph 18.4 mph N/A   Haze